,,,PA_Meas_PMT16A,,PR_Meas_QMR101_102,,RH_Meas_QMH101,,SR_Meas_QMS101,,TA_Meas_QMH101,,GenWind,,GenWind,
date,time,status,PA,status,PR,status,RH,status,SR,status,TA,status,DirAvg,status,SpdAvg,
2012-09-12, 00:00:04,VALID,1011.37,VALID,0,VALID,104,VALID,0,VALID,22.6242,VALID,304,VALID,0,
2012-09-12, 00:01:04,VALID,1011.38,VALID,0,VALID,104,VALID,0,VALID,22.5835,VALID,304,VALID,0,
2012-09-12, 00:02:04,VALID,1011.34,VALID,0,VALID,104,VALID,0,VALID,22.5852,VALID,304,VALID,0,
2012-09-12, 00:03:04,VALID,1011.33,VALID,0,VALID,104,VALID,0,VALID,22.5852,VALID,304,VALID,0,
2012-09-12, 00:04:04,VALID,1011.33,VALID,0,VALID,104,VALID,0,VALID,22.5852,VALID,304,VALID,0,
2012-09-12, 00:05:04,VALID,1011.32,VALID,0,VALID,104,VALID,0,VALID,22.5835,VALID,304,VALID,0,
2012-09-12, 00:06:04,VALID,1011.3,VALID,0,VALID,104,VALID,0,VALID,22.5835,VALID,304,VALID,0,
2012-09-12, 00:07:04,VALID,1011.31,VALID,0,VALID,104,VALID,0,VALID,22.564,VALID,304,VALID,0,
2012-09-12, 00:08:04,VALID,1011.29,VALID,0,VALID,104,VALID,0,VALID,22.5268,VALID,304,VALID,0,
2012-09-12, 00:09:04,VALID,1011.28,VALID,0,VALID,104,VALID,0,VALID,22.4878,VALID,304,VALID,0,
2012-09-12, 00:10:04,VALID,1011.3,VALID,0,VALID,104,VALID,0,VALID,22.4667,VALID,304,VALID,0,
2012-09-12, 00:11:04,VALID,1011.3,VALID,0,VALID,104,VALID,0,VALID,22.4277,VALID,304,VALID,0,
2012-09-12, 00:12:04,VALID,1011.28,VALID,0,VALID,104,VALID,0,VALID,22.4082,VALID,304,VALID,0,
2012-09-12, 00:13:04,VALID,1011.28,VALID,0,VALID,104,VALID,0,VALID,22.4082,VALID,304,VALID,0,
2012-09-12, 00:14:04,VALID,1011.27,VALID,0,VALID,104,VALID,0,VALID,22.3904,VALID,304,VALID,0,
2012-09-12, 00:15:04,VALID,1011.24,VALID,0,VALID,104,VALID,0,VALID,22.371,VALID,304,VALID,0,
2012-09-12, 00:16:04,VALID,1011.25,VALID,0,VALID,104,VALID,0,VALID,22.3515,VALID,304,VALID,0,
2012-09-12, 00:17:04,VALID,1011.25,VALID,0,VALID,104,VALID,0,VALID,22.3108,VALID,304,VALID,0,
2012-09-12, 00:18:04,VALID,1011.21,VALID,0,VALID,104,VALID,0,VALID,22.3108,VALID,304,VALID,0,
2012-09-12, 00:19:04,VALID,1011.22,VALID,0,VALID,104,VALID,0,VALID,22.3303,VALID,304,VALID,0,
2012-09-12, 00:20:04,VALID,1011.18,VALID,0,VALID,104,VALID,0,VALID,22.332,VALID,304,VALID,0,
2012-09-12, 00:21:04,VALID,1011.18,VALID,0,VALID,104,VALID,0,VALID,22.3125,VALID,304,VALID,0,
2012-09-12, 00:22:04,VALID,1011.17,VALID,0,VALID,104,VALID,0,VALID,22.3125,VALID,304,VALID,0,
2012-09-12, 00:23:04,VALID,1011.12,VALID,0,VALID,104,VALID,0,VALID,22.2719,VALID,304,VALID,0,
2012-09-12, 00:24:04,VALID,1011.1,VALID,0,VALID,104,VALID,0,VALID,22.2524,VALID,304,VALID,0,
2012-09-12, 00:25:04,VALID,1011.09,VALID,0,VALID,104,VALID,0,VALID,22.2329,VALID,304,VALID,0,
2012-09-12, 00:26:04,VALID,1011.05,VALID,0,VALID,104,VALID,0,VALID,22.2134,VALID,304,VALID,0,
2012-09-12, 00:27:04,VALID,1011.05,VALID,0,VALID,104,VALID,0,VALID,22.2134,VALID,304,VALID,0,
2012-09-12, 00:28:04,VALID,1011.03,VALID,0,VALID,104,VALID,0,VALID,22.2329,VALID,304,VALID,0,
2012-09-12, 00:29:04,VALID,1011.02,VALID,0,VALID,104,VALID,0,VALID,22.2329,VALID,304,VALID,0,
2012-09-12, 00:30:04,VALID,1010.99,VALID,0,VALID,104,VALID,0,VALID,22.2329,VALID,304,VALID,0,
2012-09-12, 00:31:04,VALID,1011.01,VALID,0,VALID,104,VALID,0,VALID,22.2134,VALID,304,VALID,0,
2012-09-12, 00:32:04,VALID,1010.98,VALID,0,VALID,104,VALID,0,VALID,22.2134,VALID,304,VALID,0,
2012-09-12, 00:33:04,VALID,1011,VALID,0,VALID,104,VALID,0,VALID,22.2719,VALID,304,VALID,0,
2012-09-12, 00:34:04,VALID,1010.98,VALID,0,VALID,104,VALID,0,VALID,22.2914,VALID,304,VALID,0,
2012-09-12, 00:35:04,VALID,1010.98,VALID,0,VALID,104,VALID,0,VALID,22.2914,VALID,304,VALID,0,
2012-09-12, 00:36:04,VALID,1010.98,VALID,0,VALID,104,VALID,0,VALID,22.2914,VALID,304,VALID,0,
2012-09-12, 00:37:04,VALID,1010.97,VALID,0,VALID,104,VALID,0,VALID,22.2524,VALID,304,VALID,0,
2012-09-12, 00:38:04,VALID,1010.97,VALID,0,VALID,104,VALID,0,VALID,22.2524,VALID,304,VALID,0,
2012-09-12, 00:39:04,VALID,1010.96,VALID,0,VALID,104,VALID,0,VALID,22.2524,VALID,304,VALID,0,
2012-09-12, 00:40:04,VALID,1010.97,VALID,0,VALID,104,VALID,0,VALID,22.2719,VALID,304,VALID,0,
2012-09-12, 00:41:04,VALID,1010.93,VALID,0,VALID,104,VALID,0,VALID,22.2524,VALID,304,VALID,0,
2012-09-12, 00:42:04,VALID,1010.95,VALID,0,VALID,104,VALID,0,VALID,22.2524,VALID,304,VALID,0,
2012-09-12, 00:43:04,VALID,1010.94,VALID,0,VALID,104,VALID,0,VALID,22.2329,VALID,304,VALID,0,
2012-09-12, 00:44:04,VALID,1010.91,VALID,0,VALID,104,VALID,0,VALID,22.194,VALID,304,VALID,0,
2012-09-12, 00:45:04,VALID,1010.9,VALID,0,VALID,104,VALID,0,VALID,22.155,VALID,304,VALID,0,
2012-09-12, 00:46:04,VALID,1010.92,VALID,0,VALID,104,VALID,0,VALID,22.1161,VALID,304,VALID,0,
2012-09-12, 00:47:04,VALID,1010.88,VALID,0,VALID,104,VALID,0,VALID,22.0966,VALID,304,VALID,0,
2012-09-12, 00:48:04,VALID,1010.9,VALID,0,VALID,104,VALID,0,VALID,22.0771,VALID,304,VALID,0,
2012-09-12, 00:49:04,VALID,1010.89,VALID,0,VALID,104,VALID,0,VALID,22.0576,VALID,304,VALID,0,
2012-09-12, 00:50:04,VALID,1010.86,VALID,0,VALID,104,VALID,0,VALID,22.0382,VALID,304,VALID,0,
2012-09-12, 00:51:04,VALID,1010.83,VALID,0,VALID,104,VALID,0,VALID,22.0771,VALID,304,VALID,0,
2012-09-12, 00:52:04,VALID,1010.85,VALID,0,VALID,104,VALID,0,VALID,22.0576,VALID,304,VALID,0,
2012-09-12, 00:53:04,VALID,1010.87,VALID,0,VALID,104,VALID,0,VALID,22.0187,VALID,304,VALID,0,
2012-09-12, 00:54:04,VALID,1010.86,VALID,0,VALID,104,VALID,0,VALID,21.9992,VALID,304,VALID,0,
2012-09-12, 00:55:04,VALID,1010.88,VALID,0,VALID,104,VALID,0,VALID,21.9797,VALID,304,VALID,0,
2012-09-12, 00:56:04,VALID,1010.86,VALID,0,VALID,104,VALID,0,VALID,21.9603,VALID,304,VALID,0,
2012-09-12, 00:57:04,VALID,1010.87,VALID,0,VALID,104,VALID,0,VALID,21.9603,VALID,304,VALID,0,
2012-09-12, 00:58:04,VALID,1010.86,VALID,0,VALID,104,VALID,0,VALID,21.9603,VALID,304,VALID,0,
2012-09-12, 00:59:04,VALID,1010.88,VALID,0,VALID,104,VALID,0,VALID,21.9408,VALID,304,VALID,0,
2012-09-12, 01:00:04,VALID,1010.86,VALID,0,VALID,104,VALID,0,VALID,21.9213,VALID,304,VALID,0,
2012-09-12, 01:01:04,VALID,1010.87,VALID,0,VALID,104,VALID,0,VALID,21.9018,VALID,304,VALID,0,
2012-09-12, 01:02:04,VALID,1010.87,VALID,0,VALID,104,VALID,0,VALID,21.8434,VALID,304,VALID,0,
2012-09-12, 01:03:04,VALID,1010.86,VALID,0,VALID,104,VALID,0,VALID,21.8629,VALID,304,VALID,0,
2012-09-12, 01:04:04,VALID,1010.86,VALID,0,VALID,104,VALID,0,VALID,21.8629,VALID,304,VALID,0,
2012-09-12, 01:05:04,VALID,1010.84,VALID,0,VALID,104,VALID,0,VALID,21.8824,VALID,304,VALID,0,
2012-09-12, 01:06:04,VALID,1010.87,VALID,0,VALID,104,VALID,0,VALID,21.923,VALID,304,VALID,0,
2012-09-12, 01:07:04,VALID,1010.85,VALID,0,VALID,104,VALID,0,VALID,21.9619,VALID,304,VALID,0,
2012-09-12, 01:08:04,VALID,1010.86,VALID,0,VALID,104,VALID,0,VALID,21.9424,VALID,304,VALID,0,
2012-09-12, 01:09:04,VALID,1010.82,VALID,0,VALID,104,VALID,0,VALID,21.9018,VALID,304,VALID,0,
2012-09-12, 01:10:04,VALID,1010.82,VALID,0,VALID,104,VALID,0,VALID,21.884,VALID,304,VALID,0,
2012-09-12, 01:11:04,VALID,1010.85,VALID,0,VALID,104,VALID,0,VALID,21.8434,VALID,304,VALID,0,
2012-09-12, 01:12:04,VALID,1010.82,VALID,0,VALID,104,VALID,0,VALID,21.8434,VALID,304,VALID,0,
2012-09-12, 01:13:04,VALID,1010.81,VALID,0,VALID,104,VALID,0,VALID,21.8434,VALID,304,VALID,0,
2012-09-12, 01:14:04,VALID,1010.81,VALID,0,VALID,104,VALID,0,VALID,21.8434,VALID,304,VALID,0,
2012-09-12, 01:15:04,VALID,1010.8,VALID,0,VALID,104,VALID,0,VALID,21.8434,VALID,304,VALID,0,
2012-09-12, 01:16:04,VALID,1010.82,VALID,0,VALID,104,VALID,0,VALID,21.8434,VALID,304,VALID,0,
2012-09-12, 01:17:04,VALID,1010.81,VALID,0,VALID,104,VALID,0,VALID,21.8239,VALID,304,VALID,0,
2012-09-12, 01:18:04,VALID,1010.8,VALID,0,VALID,104,VALID,0,VALID,21.8239,VALID,304,VALID,0,
2012-09-12, 01:19:04,VALID,1010.8,VALID,0,VALID,104,VALID,0,VALID,21.8045,VALID,304,VALID,0,
2012-09-12, 01:20:04,VALID,1010.8,VALID,0,VALID,104,VALID,0,VALID,21.8239,VALID,304,VALID,0,
2012-09-12, 01:21:04,VALID,1010.77,VALID,0,VALID,104,VALID,0,VALID,21.8239,VALID,304,VALID,0,
2012-09-12, 01:22:04,VALID,1010.79,VALID,0,VALID,104,VALID,0,VALID,21.8434,VALID,304,VALID,0,
2012-09-12, 01:23:04,VALID,1010.79,VALID,0,VALID,104,VALID,0,VALID,21.8434,VALID,304,VALID,0,
2012-09-12, 01:24:04,VALID,1010.78,VALID,0,VALID,104,VALID,0,VALID,21.8434,VALID,304,VALID,0,
2012-09-12, 01:25:04,VALID,1010.72,VALID,0,VALID,104,VALID,0,VALID,21.8239,VALID,304,VALID,0,
2012-09-12, 01:26:04,VALID,1010.69,VALID,0,VALID,104,VALID,0,VALID,21.8256,VALID,304,VALID,0,
2012-09-12, 01:27:04,VALID,1010.68,VALID,0,VALID,104,VALID,0,VALID,21.7866,VALID,304,VALID,0,
2012-09-12, 01:28:04,VALID,1010.66,VALID,0,VALID,104,VALID,0,VALID,21.7672,VALID,304,VALID,0,
2012-09-12, 01:29:04,VALID,1010.66,VALID,0,VALID,104,VALID,0,VALID,21.7477,VALID,304,VALID,0,
2012-09-12, 01:30:04,VALID,1010.68,VALID,0,VALID,104,VALID,0,VALID,21.7071,VALID,304,VALID,0,
2012-09-12, 01:31:04,VALID,1010.65,VALID,0,VALID,104,VALID,0,VALID,21.7266,VALID,304,VALID,0,
2012-09-12, 01:32:04,VALID,1010.64,VALID,0,VALID,104,VALID,0,VALID,21.785,VALID,304,VALID,0,
2012-09-12, 01:33:04,VALID,1010.57,VALID,0,VALID,104,VALID,0,VALID,21.785,VALID,304,VALID,0,
2012-09-12, 01:34:04,VALID,1010.54,VALID,0,VALID,104,VALID,0,VALID,21.8239,VALID,304,VALID,0,
2012-09-12, 01:35:04,VALID,1010.52,VALID,0,VALID,104,VALID,0,VALID,21.8239,VALID,304,VALID,0,
2012-09-12, 01:36:04,VALID,1010.52,VALID,0,VALID,104,VALID,0,VALID,21.8239,VALID,304,VALID,0,
2012-09-12, 01:37:04,VALID,1010.5,VALID,0,VALID,104,VALID,0,VALID,21.8239,VALID,304,VALID,0,
2012-09-12, 01:38:04,VALID,1010.46,VALID,0,VALID,104,VALID,0,VALID,21.8045,VALID,304,VALID,0,
2012-09-12, 01:39:04,VALID,1010.44,VALID,0,VALID,104,VALID,0,VALID,21.746,VALID,304,VALID,0,
2012-09-12, 01:40:04,VALID,1010.42,VALID,0,VALID,104,VALID,0,VALID,21.7266,VALID,304,VALID,0,
2012-09-12, 01:41:04,VALID,1010.44,VALID,0,VALID,104,VALID,0,VALID,21.7672,VALID,304,VALID,0,
2012-09-12, 01:42:04,VALID,1010.46,VALID,0,VALID,104,VALID,0,VALID,21.7655,VALID,304,VALID,0,
2012-09-12, 01:43:04,VALID,1010.45,VALID,0,VALID,104,VALID,0,VALID,21.7672,VALID,304,VALID,0,
2012-09-12, 01:44:04,VALID,1010.46,VALID,0,VALID,104,VALID,0,VALID,21.7266,VALID,304,VALID,0,
2012-09-12, 01:45:04,VALID,1010.43,VALID,0,VALID,104,VALID,0,VALID,21.6876,VALID,304,VALID,0,
2012-09-12, 01:46:04,VALID,1010.45,VALID,0,VALID,104,VALID,0,VALID,21.6487,VALID,304,VALID,0,
2012-09-12, 01:47:04,VALID,1010.43,VALID,0,VALID,104,VALID,0,VALID,21.6097,VALID,304,VALID,0,
2012-09-12, 01:48:04,VALID,1010.46,VALID,0,VALID,104,VALID,0,VALID,21.6114,VALID,304,VALID,0,
2012-09-12, 01:49:04,VALID,1010.45,VALID,0,VALID,104,VALID,0,VALID,21.5708,VALID,304,VALID,0,
2012-09-12, 01:50:04,VALID,1010.47,VALID,0,VALID,104,VALID,0,VALID,21.5724,VALID,304,VALID,0,
2012-09-12, 01:51:04,VALID,1010.46,VALID,0,VALID,104,VALID,0,VALID,21.5724,VALID,304,VALID,0,
2012-09-12, 01:52:04,VALID,1010.48,VALID,0,VALID,104,VALID,0,VALID,21.5902,VALID,304,VALID,0,
2012-09-12, 01:53:04,VALID,1010.5,VALID,0,VALID,104,VALID,0,VALID,21.6097,VALID,304,VALID,0,
2012-09-12, 01:54:04,VALID,1010.48,VALID,0,VALID,104,VALID,0,VALID,21.6308,VALID,304,VALID,0,
2012-09-12, 01:55:04,VALID,1010.51,VALID,0,VALID,104,VALID,0,VALID,21.6503,VALID,304,VALID,0,
2012-09-12, 01:56:04,VALID,1010.5,VALID,0,VALID,104,VALID,0,VALID,21.6681,VALID,304,VALID,0,
2012-09-12, 01:57:04,VALID,1010.52,VALID,0,VALID,104,VALID,0,VALID,21.6681,VALID,304,VALID,0,
2012-09-12, 01:58:04,VALID,1010.51,VALID,0,VALID,104,VALID,0,VALID,21.6698,VALID,304,VALID,0,
2012-09-12, 01:59:04,VALID,1010.49,VALID,0,VALID,104,VALID,0,VALID,21.6487,VALID,304,VALID,0,
2012-09-12, 02:00:04,VALID,1010.51,VALID,0,VALID,104,VALID,0,VALID,21.6097,VALID,304,VALID,0,
2012-09-12, 02:01:04,VALID,1010.49,VALID,0,VALID,104,VALID,0,VALID,21.6503,VALID,304,VALID,0,
2012-09-12, 02:02:04,VALID,1010.48,VALID,0,VALID,104,VALID,0,VALID,21.6292,VALID,304,VALID,0,
2012-09-12, 02:03:04,VALID,1010.46,VALID,0,VALID,104,VALID,0,VALID,21.6308,VALID,304,VALID,0,
2012-09-12, 02:04:04,VALID,1010.43,VALID,0,VALID,104,VALID,0,VALID,21.5902,VALID,304,VALID,0,
2012-09-12, 02:05:04,VALID,1010.42,VALID,0,VALID,104,VALID,0,VALID,21.5919,VALID,304,VALID,0,
2012-09-12, 02:06:04,VALID,1010.4,VALID,0,VALID,104,VALID,0,VALID,21.5335,VALID,304,VALID,0,
2012-09-12, 02:07:04,VALID,1010.39,VALID,0,VALID,104,VALID,0,VALID,21.4734,VALID,304,VALID,0,
2012-09-12, 02:08:04,VALID,1010.38,VALID,0,VALID,104,VALID,0,VALID,21.4539,VALID,304,VALID,0,
2012-09-12, 02:09:04,VALID,1010.35,VALID,0,VALID,104,VALID,0,VALID,21.4134,VALID,304,VALID,0,
2012-09-12, 02:10:04,VALID,1010.36,VALID,0,VALID,104,VALID,0,VALID,21.4556,VALID,304,VALID,0,
2012-09-12, 02:11:04,VALID,1010.34,VALID,0,VALID,104,VALID,0,VALID,21.415,VALID,304,VALID,0,
2012-09-12, 02:12:04,VALID,1010.36,VALID,0,VALID,104,VALID,0,VALID,21.415,VALID,304,VALID,0,
2012-09-12, 02:13:04,VALID,1010.38,VALID,0,VALID,104,VALID,0,VALID,21.3955,VALID,304,VALID,0,
2012-09-12, 02:14:04,VALID,1010.35,VALID,0,VALID,104,VALID,0,VALID,21.3971,VALID,304,VALID,0,
2012-09-12, 02:15:04,VALID,1010.34,VALID,0,VALID,104,VALID,0,VALID,21.376,VALID,304,VALID,0,
2012-09-12, 02:16:04,VALID,1010.34,VALID,0,VALID,104,VALID,0,VALID,21.3566,VALID,304,VALID,0,
2012-09-12, 02:17:04,VALID,1010.35,VALID,0,VALID,104,VALID,0,VALID,21.3371,VALID,304,VALID,0,
2012-09-12, 02:18:04,VALID,1010.34,VALID,0,VALID,104,VALID,0,VALID,21.3176,VALID,304,VALID,0,
2012-09-12, 02:19:04,VALID,1010.34,VALID,0,VALID,104,VALID,0,VALID,21.3371,VALID,304,VALID,0,
2012-09-12, 02:20:04,VALID,1010.32,VALID,0,VALID,104,VALID,0,VALID,21.3566,VALID,304,VALID,0,
2012-09-12, 02:21:04,VALID,1010.28,VALID,0,VALID,104,VALID,0,VALID,21.3176,VALID,304,VALID,0,
2012-09-12, 02:22:04,VALID,1010.31,VALID,0,VALID,104,VALID,0,VALID,21.3176,VALID,304,VALID,0,
2012-09-12, 02:23:04,VALID,1010.29,VALID,0,VALID,104,VALID,0,VALID,21.3176,VALID,304,VALID,0,
2012-09-12, 02:24:04,VALID,1010.3,VALID,0,VALID,104,VALID,0,VALID,21.3176,VALID,304,VALID,0,
2012-09-12, 02:25:04,VALID,1010.29,VALID,0,VALID,104,VALID,0,VALID,21.2982,VALID,304,VALID,0,
2012-09-12, 02:26:04,VALID,1010.3,VALID,0,VALID,104,VALID,0.112112,VALID,21.2592,VALID,304,VALID,0,
2012-09-12, 02:27:04,VALID,1010.3,VALID,0,VALID,104,VALID,0,VALID,21.2397,VALID,304,VALID,0,
2012-09-12, 02:28:04,VALID,1010.29,VALID,0,VALID,104,VALID,0,VALID,21.2203,VALID,304,VALID,0,
2012-09-12, 02:29:04,VALID,1010.29,VALID,0,VALID,104,VALID,0,VALID,21.2203,VALID,304,VALID,0,
2012-09-12, 02:30:04,VALID,1010.27,VALID,0,VALID,104,VALID,0,VALID,21.2203,VALID,304,VALID,0,
2012-09-12, 02:31:04,VALID,1010.28,VALID,0,VALID,104,VALID,0,VALID,21.2203,VALID,304,VALID,0,
2012-09-12, 02:32:04,VALID,1010.29,VALID,0,VALID,104,VALID,0,VALID,21.1813,VALID,304,VALID,0,
2012-09-12, 02:33:04,VALID,1010.29,VALID,0,VALID,104,VALID,0,VALID,21.1813,VALID,304,VALID,0,
2012-09-12, 02:34:04,VALID,1010.26,VALID,0,VALID,104,VALID,0,VALID,21.1813,VALID,304,VALID,0,
2012-09-12, 02:35:04,VALID,1010.28,VALID,0,VALID,104,VALID,0,VALID,21.1424,VALID,304,VALID,0,
2012-09-12, 02:36:04,VALID,1010.29,VALID,0,VALID,104,VALID,0,VALID,21.1424,VALID,304,VALID,0,
2012-09-12, 02:37:04,VALID,1010.29,VALID,0,VALID,104,VALID,0,VALID,21.1229,VALID,304,VALID,0,
2012-09-12, 02:38:04,VALID,1010.27,VALID,0,VALID,104,VALID,0,VALID,21.1229,VALID,304,VALID,0,
2012-09-12, 02:39:04,VALID,1010.29,VALID,0,VALID,104,VALID,0,VALID,21.144,VALID,304,VALID,0,
2012-09-12, 02:40:04,VALID,1010.3,VALID,0,VALID,104,VALID,0,VALID,21.1035,VALID,304,VALID,0,
2012-09-12, 02:41:04,VALID,1010.3,VALID,0,VALID,104,VALID,0,VALID,21.1035,VALID,304,VALID,0,
2012-09-12, 02:42:04,VALID,1010.31,VALID,0,VALID,104,VALID,0,VALID,21.1035,VALID,304,VALID,0,
2012-09-12, 02:43:04,VALID,1010.31,VALID,0,VALID,104,VALID,0,VALID,21.1035,VALID,304,VALID,0,
2012-09-12, 02:44:04,VALID,1010.3,VALID,0,VALID,104,VALID,0,VALID,21.0856,VALID,304,VALID,0,
2012-09-12, 02:45:04,VALID,1010.32,VALID,0,VALID,104,VALID,0,VALID,21.1035,VALID,304,VALID,0,
2012-09-12, 02:46:04,VALID,1010.31,VALID,0,VALID,104,VALID,0,VALID,21.1229,VALID,304,VALID,0,
2012-09-12, 02:47:04,VALID,1010.28,VALID,0,VALID,104,VALID,0,VALID,21.1229,VALID,304,VALID,0,
2012-09-12, 02:48:04,VALID,1010.33,VALID,0,VALID,104,VALID,0,VALID,21.1229,VALID,304,VALID,0,
2012-09-12, 02:49:04,VALID,1010.33,VALID,0,VALID,104,VALID,0,VALID,21.1035,VALID,304,VALID,0,
2012-09-12, 02:50:04,VALID,1010.33,VALID,0,VALID,104,VALID,0,VALID,21.084,VALID,304,VALID,0,
2012-09-12, 02:51:04,VALID,1010.34,VALID,0,VALID,104,VALID,0,VALID,21.0645,VALID,304,VALID,0,
2012-09-12, 02:52:04,VALID,1010.37,VALID,0,VALID,104,VALID,0,VALID,21.0645,VALID,304,VALID,0,
2012-09-12, 02:53:04,VALID,1010.38,VALID,0,VALID,104,VALID,0,VALID,21.045,VALID,304,VALID,0,
2012-09-12, 02:54:04,VALID,1010.42,VALID,0,VALID,104,VALID,0,VALID,21.0256,VALID,304,VALID,0,
2012-09-12, 02:55:04,VALID,1010.43,VALID,0,VALID,104,VALID,0,VALID,21.0256,VALID,304,VALID,0,
2012-09-12, 02:56:04,VALID,1010.43,VALID,0,VALID,104,VALID,0,VALID,21.0256,VALID,304,VALID,0,
2012-09-12, 02:57:04,VALID,1010.44,VALID,0,VALID,104,VALID,0,VALID,21.0061,VALID,304,VALID,0,
2012-09-12, 02:58:04,VALID,1010.44,VALID,0,VALID,104,VALID,0,VALID,21.0061,VALID,304,VALID,0,
2012-09-12, 02:59:04,VALID,1010.43,VALID,0,VALID,104,VALID,0,VALID,21.0061,VALID,304,VALID,0,
2012-09-12, 03:00:04,VALID,1010.43,VALID,0,VALID,104,VALID,0,VALID,21.0061,VALID,304,VALID,0,
2012-09-12, 03:01:04,VALID,1010.44,VALID,0,VALID,104,VALID,0,VALID,21.0077,VALID,304,VALID,0,
2012-09-12, 03:02:04,VALID,1010.42,VALID,0,VALID,104,VALID,0,VALID,21.0077,VALID,304,VALID,0,
2012-09-12, 03:03:04,VALID,1010.42,VALID,0,VALID,104,VALID,0,VALID,20.9882,VALID,304,VALID,0,
2012-09-12, 03:04:04,VALID,1010.43,VALID,0,VALID,104,VALID,0,VALID,20.9672,VALID,304,VALID,0,
2012-09-12, 03:05:04,VALID,1010.44,VALID,0,VALID,104,VALID,0,VALID,20.9882,VALID,304,VALID,0,
2012-09-12, 03:06:04,VALID,1010.47,VALID,0,VALID,104,VALID,0,VALID,20.9866,VALID,304,VALID,0,
2012-09-12, 03:07:04,VALID,1010.46,VALID,0,VALID,104,VALID,0,VALID,21.0061,VALID,304,VALID,0,
2012-09-12, 03:08:04,VALID,1010.48,VALID,0,VALID,104,VALID,0,VALID,21.0077,VALID,304,VALID,0,
2012-09-12, 03:09:04,VALID,1010.5,VALID,0,VALID,104,VALID,0,VALID,21.0466,VALID,304,VALID,0,
2012-09-12, 03:10:04,VALID,1010.52,VALID,0,VALID,104,VALID,0,VALID,21.0466,VALID,304,VALID,0,
2012-09-12, 03:11:04,VALID,1010.5,VALID,0,VALID,104,VALID,0,VALID,21.0466,VALID,304,VALID,0,
2012-09-12, 03:12:04,VALID,1010.49,VALID,0,VALID,104,VALID,0,VALID,21.0466,VALID,304,VALID,0,
2012-09-12, 03:13:04,VALID,1010.48,VALID,0,VALID,104,VALID,0,VALID,21.0272,VALID,304,VALID,0,
2012-09-12, 03:14:04,VALID,1010.49,VALID,0,VALID,104,VALID,0,VALID,20.9672,VALID,304,VALID,0,
2012-09-12, 03:15:04,VALID,1010.48,VALID,0,VALID,104,VALID,0,VALID,20.9477,VALID,304,VALID,0,
2012-09-12, 03:16:04,VALID,1010.51,VALID,0,VALID,104,VALID,0,VALID,20.9282,VALID,304,VALID,0,
2012-09-12, 03:17:04,VALID,1010.52,VALID,0,VALID,104,VALID,0,VALID,20.9103,VALID,304,VALID,0,
2012-09-12, 03:18:04,VALID,1010.51,VALID,0,VALID,104,VALID,0,VALID,20.8714,VALID,304,VALID,0,
2012-09-12, 03:19:04,VALID,1010.52,VALID,0,VALID,104,VALID,0,VALID,20.8519,VALID,304,VALID,0,
2012-09-12, 03:20:04,VALID,1010.58,VALID,0,VALID,104,VALID,0,VALID,20.8309,VALID,304,VALID,0,
2012-09-12, 03:21:04,VALID,1010.6,VALID,0,VALID,104,VALID,0,VALID,20.8114,VALID,304,VALID,0,
2012-09-12, 03:22:04,VALID,1010.59,VALID,0,VALID,104,VALID,0,VALID,20.7935,VALID,304,VALID,0,
2012-09-12, 03:23:04,VALID,1010.56,VALID,0,VALID,104,VALID,0,VALID,20.7725,VALID,304,VALID,0,
2012-09-12, 03:24:04,VALID,1010.55,VALID,0,VALID,104,VALID,0,VALID,20.753,VALID,304,VALID,0,
2012-09-12, 03:25:04,VALID,1010.56,VALID,0,VALID,104,VALID,0,VALID,20.7725,VALID,304,VALID,0,
2012-09-12, 03:26:04,VALID,1010.55,VALID,0,VALID,104,VALID,0,VALID,20.774,VALID,304,VALID,0,
2012-09-12, 03:27:04,VALID,1010.56,VALID,0,VALID,104,VALID,0,VALID,20.7546,VALID,304,VALID,0,
2012-09-12, 03:28:04,VALID,1010.56,VALID,0,VALID,104,VALID,0,VALID,20.7351,VALID,304,VALID,0,
2012-09-12, 03:29:04,VALID,1010.56,VALID,0,VALID,104,VALID,0,VALID,20.6751,VALID,304,VALID,0,
2012-09-12, 03:30:04,VALID,1010.52,VALID,0,VALID,104,VALID,0,VALID,20.6767,VALID,304,VALID,0,
2012-09-12, 03:31:04,VALID,1010.5,VALID,0,VALID,104,VALID,0,VALID,20.6572,VALID,304,VALID,0,
2012-09-12, 03:32:04,VALID,1010.5,VALID,0,VALID,104,VALID,0,VALID,20.6378,VALID,304,VALID,0,
2012-09-12, 03:33:04,VALID,1010.51,VALID,0,VALID,104,VALID,0,VALID,20.6183,VALID,304,VALID,0,
2012-09-12, 03:34:04,VALID,1010.5,VALID,0,VALID,104,VALID,0,VALID,20.6183,VALID,304,VALID,0,
2012-09-12, 03:35:04,VALID,1010.47,VALID,0,VALID,104,VALID,0,VALID,20.5988,VALID,304,VALID,0,
2012-09-12, 03:36:04,VALID,1010.46,VALID,0,VALID,104,VALID,0,VALID,20.5794,VALID,304,VALID,0,
2012-09-12, 03:37:04,VALID,1010.48,VALID,0,VALID,104,VALID,0,VALID,20.5389,VALID,304,VALID,0,
2012-09-12, 03:38:04,VALID,1010.49,VALID,0,VALID,104,VALID,0,VALID,20.5194,VALID,304,VALID,0,
2012-09-12, 03:39:04,VALID,1010.46,VALID,0,VALID,104,VALID,0,VALID,20.5209,VALID,304,VALID,0,
2012-09-12, 03:40:04,VALID,1010.48,VALID,0,VALID,104,VALID,0,VALID,20.5404,VALID,304,VALID,0,
2012-09-12, 03:41:04,VALID,1010.5,VALID,0,VALID,104,VALID,0,VALID,20.5404,VALID,304,VALID,0,
2012-09-12, 03:42:04,VALID,1010.49,VALID,0,VALID,104,VALID,0,VALID,20.5599,VALID,304,VALID,0,
2012-09-12, 03:43:04,VALID,1010.51,VALID,0,VALID,104,VALID,0,VALID,20.5599,VALID,304,VALID,0,
2012-09-12, 03:44:04,VALID,1010.54,VALID,0,VALID,104,VALID,0,VALID,20.5583,VALID,304,VALID,0,
2012-09-12, 03:45:04,VALID,1010.52,VALID,0,VALID,104,VALID,0,VALID,20.5988,VALID,304,VALID,0,
2012-09-12, 03:46:04,VALID,1010.51,VALID,0,VALID,104,VALID,0,VALID,20.5973,VALID,304,VALID,0,
2012-09-12, 03:47:04,VALID,1010.53,VALID,0,VALID,104,VALID,0,VALID,20.5973,VALID,304,VALID,0,
2012-09-12, 03:48:04,VALID,1010.51,VALID,0,VALID,104,VALID,0,VALID,20.5778,VALID,304,VALID,0,
2012-09-12, 03:49:04,VALID,1010.52,VALID,0,VALID,104,VALID,0,VALID,20.5583,VALID,304,VALID,0,
2012-09-12, 03:50:04,VALID,1010.49,VALID,0,VALID,104,VALID,0,VALID,20.5794,VALID,304,VALID,0,
2012-09-12, 03:51:04,VALID,1010.48,VALID,0,VALID,104,VALID,0,VALID,20.5778,VALID,304,VALID,0,
2012-09-12, 03:52:04,VALID,1010.48,VALID,0,VALID,104,VALID,0,VALID,20.5988,VALID,304,VALID,0,
2012-09-12, 03:53:04,VALID,1010.47,VALID,0,VALID,104,VALID,0,VALID,20.5778,VALID,304,VALID,0,
2012-09-12, 03:54:04,VALID,1010.47,VALID,0,VALID,104,VALID,0,VALID,20.6183,VALID,304,VALID,0,
2012-09-12, 03:55:04,VALID,1010.46,VALID,0,VALID,104,VALID,0,VALID,20.5973,VALID,304,VALID,0,
2012-09-12, 03:56:04,VALID,1010.48,VALID,0,VALID,104,VALID,0,VALID,20.5973,VALID,304,VALID,0,
2012-09-12, 03:57:04,VALID,1010.49,VALID,0,VALID,104,VALID,0,VALID,20.5794,VALID,304,VALID,0,
2012-09-12, 03:58:04,VALID,1010.48,VALID,0,VALID,104,VALID,0,VALID,20.5988,VALID,304,VALID,0,
2012-09-12, 03:59:04,VALID,1010.46,VALID,0,VALID,104,VALID,0,VALID,20.5988,VALID,304,VALID,0,
2012-09-12, 04:00:04,VALID,1010.44,VALID,0,VALID,104,VALID,0,VALID,20.5778,VALID,304,VALID,0,
2012-09-12, 04:01:04,VALID,1010.43,VALID,0,VALID,104,VALID,0,VALID,20.5988,VALID,304,VALID,0,
2012-09-12, 04:02:04,VALID,1010.44,VALID,0,VALID,104,VALID,0,VALID,20.5794,VALID,304,VALID,0,
2012-09-12, 04:03:04,VALID,1010.45,VALID,0,VALID,104,VALID,0,VALID,20.5404,VALID,304,VALID,0,
2012-09-12, 04:04:04,VALID,1010.47,VALID,0,VALID,104,VALID,0,VALID,20.5194,VALID,304,VALID,0,
2012-09-12, 04:05:04,VALID,1010.51,VALID,0,VALID,104,VALID,0,VALID,20.5404,VALID,304,VALID,0,
2012-09-12, 04:06:04,VALID,1010.53,VALID,0,VALID,104,VALID,0,VALID,20.5389,VALID,304,VALID,0,
2012-09-12, 04:07:04,VALID,1010.52,VALID,0,VALID,104,VALID,0,VALID,20.5794,VALID,304,VALID,0,
2012-09-12, 04:08:04,VALID,1010.51,VALID,0,VALID,104,VALID,0,VALID,20.6183,VALID,304,VALID,0,
2012-09-12, 04:09:04,VALID,1010.5,VALID,0,VALID,104,VALID,0,VALID,20.6167,VALID,304,VALID,0,
2012-09-12, 04:10:04,VALID,1010.48,VALID,0,VALID,104,VALID,0,VALID,20.6572,VALID,304,VALID,0,